FENGYUN 1C DEB

Satellite information

Favourite Embed

Satellite Type and Status

DEBRISIN ORBIT

Key statistics

Satellite FENGYUN 1C DEB at a glance.

Uptime

9714

Days in orbit

Revolutions

≈ 14.3

Per day

Orbit

SSO

Sun Synchronous Orbit

Inclination

98.9

Latest

Satellite identification and parameters

Extended collection of information and parameters for FENGYUN 1C DEB.

Object identification

Identified? True

Debris? True

Object name: FENGYUN 1C DEB

International designator: 1999-025EN

Object number (NORAD): 29844

Object ID (CCSDS): 29844

Country: PEOPLES REPUBLIC OF CHINA (PRC)

Current information (Y/N): Y

RCS size: SMALL

Orbital parameters

Period: 100.56 minutes

Inclination: 98.936 deg

SMA: 7163.252 km

Apoapsis: 905.487 km

Periapsis: 664.747 km

RAAN: 247.5207 deg

Eccentricy: 0.01680379

Argument of periapsis: 168.6501 deg

Mean anomaly: 191.8546 deg

Mean motion: 14.31981518 rev/day

Mean motion (dot): 0.00001992 rev/day2

B* drag term: 0.00065146983 1/REarth

Two-line elements (TLE)

Creation date: Dec. 12, 2025, 10:14 a.m.

Reference frame: TEME

Reference center: EARTH

Epoch: Dec. 12, 2025, 4:40 a.m. UTC

TLE line 0: 0 FENGYUN 1C DEB

TLE line 1: 1 29844U 99025EN 25346.19480188 .00001992 00000-0 65147-3 0 9998

TLE line 2: 2 29844 98.9360 247.5207 0168038 168.6501 191.8546 14.31981518983335

Live tracking on map

Real-time ground track for satellite FENGYUN 1C DEB.

In-orbit conjunctions

A list of the most updated potential collisions computed for object FENGYUN 1C DEB.

Target Orbit TCA Probability of collision Miss distance Type
PICOSAT 1&2 (TETHERED) SSO 2025-02-10 04:26:57 0.0001151206 909.0 (m) PAYLOAD
CZ-4 DEB SSO 2024-11-12 13:12:54 0.0003538056 645.0 (m) DEBRIS
CZ-6A DEB LEO 2024-10-18 20:53:38 0.0001130523 187.0 (m) DEBRIS
NOAA 16 DEB SSO 2024-09-26 03:14:46 0.0001969186 810.0 (m) DEBRIS
DMSP 5D-2 F14 DEB SSO 2024-08-01 05:50:23 0.0002642094 51.0 (m) DEBRIS

Associated space launch

Chinese polar orbiting meteorological satellite

FENGYUN 1C DEB was lifted into orbit during the mission ‘Long March 4B | Feng Yun 1C’, on board a Long March 4B space rocket.

The launch took place on May 10, 1999, 1:33 a.m. from Launch Complex 7.

For more information about the launch, click the button.

Launch to space Long March 4B | Feng Yun 1C
Long March 4B | Feng Yun 1C

Agency: N/A

Status: Launch Successful

Launch date: May 10, 1999, 1:33 a.m. UTC

Rocket: Long March 4B

Launch pad: Launch Complex 7

Location: Taiyuan Satellite Launch Center, People's Republic of China

...

Latest news about this satellite

There are no fresh news available about this satellite. Check back as we update our databases every day.


Newsletter sign-up

Weekly statistics, charts and insights to help you stay on top of the space industry.